Regional Weather Roundup
Issued by NWS

Home | Current Version | Previous Version | Graphics & Text | Print | Product List | Glossary On
Versions: 1 2 3 4 5 6 7 8 9 10 11 12 13 14 15 16 17 18 19 20 21 22 23 24 25 26 27 28 29 30 31 32 33 34 35 36 37 38 39 40 41 42 43 44 45 46 47 48 49 50
000
ASUS44 KMEG 240210
RWRTN
TENNESSEE HOURLY STATE WEATHER ROUNDUP
NATIONAL WEATHER SERVICE MEMPHIS TN
900 PM CDT WED APR 23 2014

TNZ002-004-019-021-049-052-054-088>092-240300-
WEST TENNESSEE

CITY           SKY/WX    TMP DP  RH WIND       PRES   REMARKS
MEMPHIS INTL   PTCLDY    68  37  32 E5        29.94R
NWS MEMPHIS      N/A     66 N/A N/A MISG        N/A
JACKSON        CLEAR     62  37  39 NE3       29.97R
DYERSBURG      CLEAR     63  36  36 NE5       29.98S
UNION CITY     CLEAR     61  37  41 NE5       29.98R
PARIS          CLEAR     54  37  52 E5        30.00R
LEXINGTON      CLEAR     61  36  39 NE3       29.98R
SAVANNAH       CLEAR     56  44  64 CALM      29.98
$$

TNZ008-025-027-028-033-062-065-066-240300-
NORTH MIDDLE TENNESSEE

CITY           SKY/WX    TMP DP  RH WIND       PRES   REMARKS
NASHVILLE      CLEAR     60  33  36 N6        30.02R
DICKSON        CLEAR     57  34  41 CALM      30.01R
PORTLAND       CLEAR     55  34  44 E5        30.02R
CLARKSVILLE    CLEAR     59  35  40 N5        30.01R
SMYRNA         CLEAR     56  39  52 CALM      30.02R
MURFREESBORO   CLEAR     58  36  43 NE3       30.01R
COOKEVILLE     CLEAR     52  37  58 CALM      30.01R
LIVINGSTON     CLEAR     54  31  41 NE7       30.04R
GALLATIN       CLEAR     57  36  45 NE3       30.03R
CROSSVILLE     CLEAR     56  28  34 N5        30.03R
$$

TNZ061-075-076-078-094-096-097-240300-
SOUTH MIDDLE TENNESSEE

CITY           SKY/WX    TMP DP  RH WIND       PRES   REMARKS
LEWISBURG      CLEAR     50  44  79 CALM      30.00R
FAYETTEVILLE   CLEAR     57  34  42 N6        29.99R
TULLAHOMA      CLEAR     54  37  54 CALM      30.01R
WINCHESTER     CLEAR     52  39  62 CALM      30.00R
MCMINNVILLE    CLEAR     54  37  54 CALM      30.01R
COLUMBIA       CLEAR     57  43  58 CALM      29.98S
SHELBYVILLE    CLEAR     55  37  50 NE3       30.01R
$$

TNZ017-018-042-046-047-240300-
NORTHEAST TENNESSEE

CITY           SKY/WX    TMP DP  RH WIND       PRES   REMARKS
TRI CITIES     CLEAR     53  26  35 CALM      30.02R
ELIZABETHTON   CLEAR     48  30  49 CALM      30.02R
$$

TNZ012-013-036-069-073-074-240300-
CENTRAL EAST TENNESSEE

CITY           SKY/WX    TMP DP  RH WIND       PRES   REMARKS
KNOXVILLE      CLEAR     59  29  31 N6        29.99R
OAK RIDGE      CLEAR     58  30  34 CALM      30.02R
$$

TNZ083-085-099-240300-
SOUTHEAST TENNESSEE

CITY           SKY/WX    TMP DP  RH WIND       PRES   REMARKS
CHATTANOOGA    CLEAR     59  43  55 CALM      29.97R
$$

SKY/WX REPORTED AS FAIR MEANS FEW OR NO CLOUDS BELOW
12 THOUSAND FEET.




USA.gov is the U.S. government's official web portal to all federal, state and local government web resources and services.